[[{"header":{"parameterUnit":"m.s-1","parameterCategory":1,"la1":30.2991,"la2":30.254,"lo1":-89.0895,"lo2":-89.0444,"dy":0.0017,"dx":0.0017,"nx":28,"ny":28,"refTime":"2025-04-01T09:00:00:Z","depth":0,"parameterNumber":2,"parameterNumberName":"U-component_of_WINDS"},"data":[0,0,0,0,0,0,0,0,0,0,0,0,0,0,0,0,0,0,0,0,0,0,0,0,0,0,0,0,0,0,0,0,0,0,0,0,0,0,0,0,0,0,0,0,0,0,0,0,0,0,0,0,0,0,0,0,0,0,-4.5056,-4.5058,0,-4.5207,-4.5208,-4.521,-4.5244,-4.5243,-4.5242,-4.5241,-4.5396,-4.5401,-4.5406,0,0,0,0,0,0,0,0,0,0,0,0,0,-4.4798,-4.4803,-4.5056,-4.5058,-4.506,-4.5206,-4.5209,-4.5211,-4.5244,-4.5243,-4.5242,-4.5241,-4.5394,-4.54,-4.5406,0,0,0,0,0,0,0,0,0,0,0,0,0,-4.4926,-4.4804,-4.5055,-4.5094,-4.5099,-4.5206,-4.5209,-4.5211,-4.5245,-4.5243,-4.5242,-4.524,-4.5392,-4.54,-4.5407,-4.5486,0,0,-4.5431,-4.5434,0,0,0,0,0,0,0,0,-4.4918,-4.4935,-4.5087,-4.5092,-4.5097,-4.5205,-4.5174,-4.5303,-4.5245,-4.5189,-4.5241,-4.5239,-4.5334,-4.5346,-4.5378,-4.5493,-4.55,-4.5431,-4.5436,-4.5439,-4.5441,0,0,0,0,0,0,0,-4.491,-4.4929,-4.5116,-4.5089,-4.5095,-4.5104,-4.5121,-4.5199,-4.5269,-4.5194,-4.5197,-4.5214,-4.5336,-4.537,-4.5382,-4.5502,-4.5431,-4.5438,-4.5443,-4.5445,-4.5691,-4.5693,0,0,0,0,0,0,-4.4894,-4.4921,-4.5111,-4.512,-4.5002,-4.511,-4.5129,-4.5172,-4.5268,-4.5281,-4.5216,-4.5215,-4.5358,-4.5373,-4.5387,-4.5486,-4.5439,-4.5446,-4.5451,-4.5689,-4.5691,-4.5693,0,0,0,0,0,0,-4.4888,-4.491,-4.5105,-4.5022,-4.5047,-4.5116,-4.5165,-4.5176,-4.521,-4.5284,-4.5297,-4.5237,-4.5357,-4.5376,-4.5461,-4.5491,-4.545,-4.5457,-4.5687,-4.569,-4.5692,-4.5683,0,0,0,0,0,0,-4.4881,-4.4908,-4.4938,-4.5022,-4.5051,-4.5176,-4.5167,-4.518,-4.5223,-4.5224,-4.5308,-4.532,-4.5358,-4.545,-4.5469,-4.5501,-4.5463,-4.5684,-4.5688,-4.5692,-4.5681,-4.5685,-4.5689,0,0,0,0,0,-4.4871,-4.493,-4.494,-4.4962,-4.5091,-4.5177,-4.5194,-4.5236,-4.5225,-4.5256,-4.5304,-4.5318,-4.5486,-4.5458,-4.548,-4.5515,-4.5683,-4.5687,-4.5691,-4.5679,-4.5684,-4.5689,0,0,0,0,0,0,-4.4848,-4.4941,-4.4953,-4.5041,-4.5101,-4.5183,-4.5223,-4.524,-4.5304,-4.5303,-4.5352,-4.5371,-4.5453,-4.5493,-4.5461,-4.5597,-4.5584,-4.5593,-4.5567,-4.5573,-4.5577,-4.5564,-4.5469,0,0,0,0,0,-4.4853,-4.4915,-4.4994,-4.5063,-4.5093,-4.5153,-4.5193,-4.522,-4.5284,-4.5309,-4.5364,-4.5426,-4.5492,-4.5535,-4.5601,-4.5688,-4.5706,-4.5723,-4.5727,-4.573,-4.5736,-4.5785,-4.5793,-4.5708,-4.5708,-4.5708,0,0,-4.4864,-4.4923,-4.4959,-4.506,-4.511,-4.5174,-4.5174,-4.5242,-4.5289,-4.532,-4.5403,-4.5445,-4.5518,-4.5604,-4.5645,-4.564,-4.5765,-4.5736,-4.5737,-4.5742,-4.5791,-4.5799,-4.5806,-4.5711,-4.571,-4.571,0,0,-4.4915,-4.4967,-4.503,-4.508,-4.5156,-4.5196,-4.5211,-4.5291,-4.532,-4.5404,-4.5429,-4.5487,-4.5601,-4.5652,-4.5692,-4.5765,-4.578,-4.5786,-4.5806,-4.5853,-4.5859,-4.5866,-4.5891,-4.5899,-4.5792,-4.5792,-4.5792,0,-4.4919,-4.5016,-4.506,-4.5127,-4.5171,-4.5202,-4.5266,-4.5313,-4.5406,-4.5436,-4.543,-4.5574,-4.5625,-4.5723,-4.5741,-4.5774,-4.5792,-4.5775,-4.5855,-4.5862,-4.5868,-4.5892,-4.5902,-4.5792,-4.5792,-4.5792,-4.5792,0,-4.5016,-4.5083,-4.5125,-4.5214,-4.5263,-4.5328,-4.5383,-4.5428,-4.5451,-4.5492,-4.5578,-4.5641,-4.5719,-4.5745,-4.5769,-4.5847,-4.5842,-4.5845,-4.5832,-4.5875,-4.5899,-4.5909,-4.5793,-4.5793,-4.5792,-4.5792,0,0,-4.5055,-4.5169,-4.5184,-4.5224,-4.5311,-4.5364,-4.5431,-4.5508,-4.5545,-4.5609,-4.5666,-4.5763,-4.5766,-4.5812,-4.5842,-4.5884,-4.5937,-4.5882,-4.5884,-4.5889,-4.6026,-4.6022,-4.6032,-4.5948,-4.595,-4.5952,-4.602,0,-4.5116,-4.5236,-4.5279,-4.5378,-4.544,-4.5472,-4.553,-4.559,-4.563,-4.5689,-4.5734,-4.5801,-4.5802,-4.583,-4.5872,-4.5921,-4.5965,-4.5917,-4.6001,-4.6003,-4.5979,-4.6045,-4.6041,-4.6102,-4.6029,-4.6031,-4.6032,0,-4.5203,-4.5268,-4.5373,-4.5452,-4.548,-4.5531,-4.5606,-4.5662,-4.5731,-4.5757,-4.581,-4.5837,-4.5909,-4.5894,-4.5993,-4.596,-4.5997,-4.6027,-4.603,-4.6038,-4.6019,-4.6053,-4.6122,-4.6131,-4.6048,-4.6046,-4.6045,0,-4.5219,-4.5333,-4.541,-4.5445,-4.5539,-4.5575,-4.5616,-4.5683,-4.5727,-4.5793,-4.5822,-4.5895,-4.5935,-4.5991,-4.6038,-4.6023,-4.6133,-4.6122,-4.6157,-4.6155,-4.6176,-4.6174,-4.6251,-4.6204,-4.6203,-4.6203,-4.6203,0,-4.5282,-4.5344,-4.5419,-4.5466,-4.5538,-4.5587,-4.5656,-4.57,-4.576,-4.5816,-4.5849,-4.5901,-4.5961,-4.6022,-4.6059,-4.6135,-4.6154,-4.6177,-4.6186,-4.6173,-4.6169,-4.6196,-4.6192,-4.6206,-4.6205,-4.6205,-4.6204,0,-4.5311,-4.5363,-4.545,-4.5532,-4.5555,-4.5604,-4.5675,-4.5722,-4.5765,-4.5836,-4.5856,-4.5923,-4.5996,-4.6048,-4.6143,-4.6168,-4.625,-4.6259,-4.6226,-4.623,-4.6261,-4.6257,-4.6356,-4.6372,-4.6315,-4.6316,-4.6316,0,-4.5346,-4.5395,-4.5483,-4.5524,-4.5565,-4.5629,-4.5674,-4.5725,-4.5771,-4.5854,-4.5891,-4.5966,-4.6029,-4.6144,-4.6202,-4.6274,-4.6285,-4.6315,-4.6296,-4.6281,-4.6284,-4.6279,-4.6284,-4.6317,-4.6317,-4.6317,-4.6318,0,-4.5403,-4.5427,-4.5491,-4.5563,-4.5616,-4.5676,-4.5737,-4.5768,-4.583,-4.588,-4.5955,-4.6003,-4.61,-4.6174,-4.6253,-4.6296,-4.6317,-4.6324,-4.6335,-4.6322,-4.63,-4.6311,-4.6231,-4.6321,-4.632,-4.632,-4.632,-4.632,-4.5436,-4.5481,-4.555,-4.562,-4.5671,-4.5726,-4.5775,-4.5824,-4.5887,-4.5969,-4.5996,-4.6074,-4.6142,-4.625,-4.6294,-4.6356,-4.6355,-4.6372,-4.6376,-4.6379,-4.6377,-4.6291,-4.6371,-4.6371,-4.6371,-4.6371,-4.6371,0,-4.5494,-4.554,-4.5604,-4.5687,-4.5742,-4.5758,-4.5826,-4.5871,-4.5938,-4.6001,-4.6062,-4.6148,-4.6221,-4.6284,-4.636,-4.6397,-4.6409,-4.6415,-4.6412,-4.6421,-4.6375,-4.6356,-4.6404,-4.6404,-4.6404,-4.6404,-4.6404,-4.6404,-4.553,-4.5606,-4.5638,-4.5741,-4.5787,-4.5862,-4.59,-4.5952,-4.6002,-4.6096,-4.6157,-4.6198,-4.6261,-4.6341,-4.6409,-4.6426,-4.6451,-4.6455,-4.6474,-4.6429,-4.6424,-4.642,-4.6403,-4.646,-4.646,-4.6515,-4.6516,-4.6516]},{"header":{"parameterUnit":"m.s-1","parameterCategory":1,"la1":30.2991,"la2":30.254,"lo1":-89.0895,"lo2":-89.0444,"dy":0.0017,"dx":0.0017,"nx":28,"ny":28,"refTime":"2025-04-01T09:00:00:Z","depth":0,"parameterNumber":3,"parameterNumberName":"V-component_of_WINDS"},"data":[0,0,0,0,0,0,0,0,0,0,0,0,0,0,0,0,0,0,0,0,0,0,0,0,0,0,0,0,0,0,0,0,0,0,0,0,0,0,0,0,0,0,0,0,0,0,0,0,0,0,0,0,0,0,0,0,0,0,5.86,5.8601,0,5.8659,5.8659,5.866,5.8643,5.8642,5.8641,5.8639,5.8696,5.8698,5.8701,0,0,0,0,0,0,0,0,0,0,0,0,0,5.8472,5.8474,5.86,5.8601,5.8602,5.8658,5.8659,5.866,5.8643,5.8642,5.864,5.8639,5.8695,5.8698,5.8701,0,0,0,0,0,0,0,0,0,0,0,0,0,5.8528,5.8475,5.86,5.86,5.8601,5.8658,5.8659,5.866,5.8643,5.8642,5.864,5.8638,5.8694,5.8697,5.8701,5.8761,0,0,5.8713,5.8715,0,0,0,0,0,0,0,0,5.8525,5.8533,5.8599,5.86,5.8601,5.8642,5.8635,5.8694,5.8644,5.8627,5.8639,5.8637,5.8679,5.8684,5.8699,5.8764,5.8766,5.8714,5.8716,5.8718,5.8719,0,0,0,0,0,0,0,5.8521,5.853,5.8623,5.86,5.8601,5.8596,5.8603,5.8646,5.8662,5.8628,5.8627,5.8635,5.8679,5.8695,5.87,5.8767,5.8714,5.8717,5.8719,5.8721,5.8887,5.8889,0,0,0,0,0,0,5.8517,5.8527,5.8621,5.8625,5.8558,5.86,5.8607,5.863,5.8662,5.8665,5.8636,5.8634,5.8689,5.8695,5.8702,5.8776,5.8718,5.8721,5.8724,5.8885,5.8887,5.889,0,0,0,0,0,0,5.8514,5.8526,5.8619,5.8576,5.8587,5.8604,5.8631,5.8632,5.8648,5.8668,5.867,5.865,5.8688,5.8696,5.8747,5.8777,5.8723,5.8727,5.8882,5.8886,5.8889,5.8923,0,0,0,0,0,0,5.8511,5.8525,5.8548,5.8577,5.859,5.8664,5.8632,5.8635,5.8656,5.8653,5.8681,5.8684,5.8687,5.8742,5.8751,5.8782,5.873,5.888,5.8884,5.8888,5.8919,5.8927,5.8933,0,0,0,0,0,5.8506,5.8554,5.8549,5.8561,5.8619,5.8666,5.8673,5.8677,5.8658,5.8682,5.8694,5.8683,5.8773,5.8747,5.8758,5.879,5.8878,5.8883,5.8887,5.8916,5.8925,5.8933,0,0,0,0,0,0,5.8526,5.8558,5.8553,5.8611,5.8636,5.8663,5.8692,5.8687,5.8717,5.8713,5.8715,5.8722,5.8775,5.8787,5.8758,5.8851,5.8822,5.8829,5.884,5.8849,5.8856,5.8852,5.8733,0,0,0,0,0,5.8538,5.8574,5.8599,5.8648,5.8661,5.8675,5.8695,5.8697,5.8722,5.8732,5.8748,5.8773,5.8807,5.8829,5.8861,5.8921,5.8927,5.8948,5.8955,5.8961,5.8967,5.9002,5.9012,5.8905,5.8905,5.8905,0,0,5.8562,5.8583,5.8605,5.8653,5.8673,5.871,5.8684,5.8723,5.8751,5.8738,5.8788,5.8801,5.8828,5.8885,5.8911,5.8897,5.8998,5.8967,5.8971,5.8974,5.9008,5.9018,5.9027,5.8908,5.8907,5.8907,0,0,5.8624,5.8644,5.8688,5.8709,5.874,5.8749,5.876,5.8788,5.8797,5.8847,5.8839,5.8871,5.8929,5.895,5.8968,5.9041,5.9032,5.9051,5.9088,5.9122,5.913,5.9138,5.9165,5.9175,5.9057,5.9057,5.9057,0,5.8649,5.8706,5.8711,5.8753,5.8774,5.8766,5.8811,5.8831,5.887,5.8885,5.8869,5.8943,5.8961,5.9023,5.9042,5.9056,5.9069,5.9048,5.9129,5.9136,5.9143,5.9169,5.918,5.9059,5.9059,5.9059,5.9059,0,5.8736,5.8775,5.8807,5.8848,5.8873,5.8916,5.8927,5.8952,5.8952,5.8963,5.9015,5.9037,5.9074,5.9089,5.9088,5.9152,5.9142,5.9128,5.91,5.9156,5.918,5.919,5.9062,5.9062,5.9061,5.906,0,0,5.8811,5.8856,5.8868,5.8887,5.8922,5.8952,5.8995,5.9033,5.9055,5.9082,5.9119,5.9169,5.9157,5.9178,5.9179,5.9209,5.9267,5.9191,5.9191,5.9205,5.9341,5.9352,5.9363,5.9262,5.9264,5.9265,5.9339,0,5.8877,5.8955,5.8962,5.9031,5.9068,5.9062,5.9099,5.9125,5.9136,5.9169,5.9182,5.9218,5.9198,5.9211,5.924,5.9254,5.9295,5.9249,5.9296,5.9297,5.929,5.9376,5.9388,5.9456,5.9348,5.935,5.9351,0,5.8964,5.8997,5.9071,5.9103,5.9118,5.9152,5.9189,5.922,5.9249,5.9256,5.928,5.9279,5.9323,5.9294,5.9355,5.9324,5.9344,5.9354,5.9356,5.9361,5.9328,5.9384,5.9477,5.9488,5.9366,5.9365,5.9364,0,5.9014,5.9076,5.9129,5.9145,5.9183,5.9207,5.9224,5.9251,5.9274,5.9306,5.9321,5.9357,5.9377,5.9405,5.9413,5.9391,5.9475,5.9446,5.9482,5.9482,5.95,5.9499,5.9599,5.9512,5.9512,5.9511,5.9511,0,5.9087,5.9133,5.9152,5.9184,5.9235,5.9243,5.9293,5.9308,5.9333,5.9368,5.9364,5.9397,5.9406,5.944,5.9447,5.9498,5.9506,5.9513,5.9514,5.9514,5.9513,5.9527,5.9523,5.9514,5.9514,5.9513,5.9513,0,5.9151,5.9165,5.9222,5.9255,5.9264,5.93,5.9327,5.9359,5.9371,5.9415,5.9426,5.9445,5.9485,5.9497,5.9544,5.9549,5.961,5.9606,5.96,5.9601,5.9637,5.9633,5.9749,5.9766,5.9667,5.9668,5.9669,0,5.9197,5.9232,5.9269,5.9293,5.9312,5.935,5.9375,5.9384,5.941,5.9447,5.9474,5.9514,5.9547,5.9613,5.963,5.9667,5.9665,5.9703,5.9671,5.967,5.9667,5.9665,5.9669,5.9709,5.9711,5.9711,5.9712,0,5.9278,5.9284,5.932,5.936,5.939,5.9421,5.9451,5.947,5.9484,5.9513,5.9556,5.9582,5.9632,5.9673,5.9711,5.9728,5.9723,5.9722,5.9733,5.9733,5.9729,5.9733,5.9618,5.972,5.9719,5.9718,5.9718,5.9718,5.9335,5.9367,5.9399,5.944,5.9464,5.9492,5.9524,5.9541,5.9577,5.9621,5.9623,5.967,5.97,5.9751,5.977,5.9806,5.9795,5.981,5.9813,5.9817,5.9821,5.9723,5.9813,5.9813,5.9812,5.9812,5.9812,0,5.9417,5.9438,5.9476,5.9519,5.9551,5.9545,5.9579,5.9606,5.9648,5.9676,5.971,5.976,5.98,5.9821,5.9861,5.9886,5.9885,5.9896,5.9895,5.9899,5.9828,5.9816,5.9897,5.9897,5.9897,5.9897,5.9897,5.9897,5.9464,5.9518,5.9528,5.9595,5.9615,5.9662,5.9682,5.9708,5.9732,5.9788,5.9822,5.9836,5.9862,5.9905,5.9941,5.9947,5.9962,5.9975,5.9979,5.9912,5.9904,5.9896,5.9884,5.9978,5.9978,6.0047,6.0048,6.0048]}]]